Regional Weather Roundup
Issued by NWS Cleveland, OH

Home | Current Version | Previous Version | Text Only | Print | Product List | Glossary Off
Versions: 1 2 3 4 5 6 7 8 9 10 11 12 13 14 15 16 17 18 19 20 21 22 23 24 25 26 27 28 29 30 31 32 33 34 35 36 37 38 39 40 41 42 43 44 45 46 47 48 49 50

000
ASUS41 KCLE 182010
RWRCLE
OHIO REGIONAL WEATHER ROUNDUP
NATIONAL WEATHER SERVICE WILMINGTON, OH
400 PM EDT WED OCT 18 2017

NOTE: "FAIR" INDICATES FEW OR NO CLOUDS BELOW 12,000 FEET WITH NO
SIGNIFICANT WEATHER AND/OR OBSTRUCTIONS TO VISIBILITY.

OHZ001>008-015>018-024>027-034-035-043-044-182100-
   NORTHWEST OHIO

CITY           SKY/WX    TMP DP  RH WIND       PRES   REMARKS
DEFIANCE       FAIR      69  39  33 SW15G23   30.16F
FINDLAY        FAIR      71  38  29 S16       30.17F
TOLEDO EXPRESS FAIR      71  42  35 SW12      30.16F
TOLEDO EXEC    FAIR      71  39  31 SW16G23   30.17F
LIMA           FAIR      68  39  34 SW14      30.19F
$$

OHZ009>014-019>023-028>033-038-089-182100-
   NORTHEAST OHIO

CITY           SKY/WX    TMP DP  RH WIND       PRES   REMARKS
CLE-HOPKINS    FAIR      70  42  36 S14G21    30.22F
CLE-LAKEFRONT  FAIR      71  37  28 S17       30.19F
CUY CO. ARPT   SUNNY     72  43  35 S13       30.21
LORAIN-ELYRIA  FAIR      69  37  30 S15       30.20F
ASHTABULA      FAIR      69  41  36 S14G20    30.22F
AKRON-CANTON   FAIR      68  41  37 SW14      30.23F
WOOSTER        FAIR      68  39  34 S13G18    30.23F
MANSFIELD      FAIR      69  35  28 S17       30.22F
YOUNGSTOWN     FAIR      69  41  36 S12       30.23F
$$

OHZ042-051>053-060>062-070>072-077>081-182100-
  SOUTHWEST OHIO

CITY           SKY/WX    TMP DP  RH WIND       PRES   REMARKS
CINC-COVINGTON FAIR      69  44  40 W8        30.23F
CINC-LUNKEN    FAIR      70  47  43 S6        30.24F
HAMILTON       FAIR      71  43  36 S7        30.23F
DAYTON         FAIR      67  43  41 S12       30.23F
WRIGHT-PAT AFB FAIR      69  37  30 S13       30.22F
DAYTON GENERAL FAIR      67  42  40 S12       30.23F
WILMINGTON     FAIR      68  44  42 SW8       30.23F
$$

OHZ036-037-039>041-045>050-054>059-063>069-073>076-082>088-182100-
  CENTRAL AND SOUTHEAST OHIO

CITY           SKY/WX    TMP DP  RH WIND       PRES   REMARKS
COLUMBUS       FAIR      69  40  34 S10       30.23F
OSU AIRPORT    FAIR      68  43  40 S9G17     30.22F
BOLTON FIELD   SUNNY     70  43  37 S12       30.23F
RICKENBACK AFB FAIR      68  39  34 S12       30.23F
NEWARK         FAIR      70  36  28 S10       30.23F
MARION         FAIR      68  38  33 S13       30.22F
LANCASTER      FAIR      68  43  40 S8        30.24F
ZANESVILLE     FAIR      69  39  33 S10       30.24F
NEW PHILLY     FAIR      70  41  34 SW8       30.24F
$$




USA.gov is the U.S. government's official web portal to all federal, state and local government web resources and services.